Location: ??????
(38.3184°N, 23.6932°E)
Time: 19:09:37
(UTC+00:00)

Daily predictions for brighter satellites

Satellite Brightness Start Highest point End
(mag) Time Altitude Azimuth Time Altitude Azimuth Time Altitude Azimuth
Meteor 1-24 Rocket 3.9 16:03:10 10° N 16:08:56 87° W 16:14:51 10° S
Cosmos 2227 Rocket 2.3 16:04:09 10° NNW 16:09:46 61° ENE 16:15:21 10° SE
Timation 2 Rocket 4.4 16:06:41 10° NNW 16:13:23 51° ENE 16:19:52 10° SE
Cosmos 1356 3.7 16:13:26 10° N 16:16:42 44° ENE 16:19:56 10° SSE
CZ-2C R/B 3.0 16:11:25 10° NNE 16:16:48 46° E 16:22:05 10° S
Landsat 5 3.7 16:15:01 10° NNE 16:19:17 54° E 16:23:38 10° S
Radarsat Rocket 4.5 16:13:42 10° S 16:19:42 73° WSW 16:26:25 10° NNW
SKYMED 2 3.6 16:17:17 10° NNE 16:21:35 61° E 16:25:52 10° S
Cosmos 1726 4.0 16:18:24 10° SW 16:21:42 33° WNW 16:25:02 10° NNW
Cosmos 1470 4.0 16:18:55 10° SSW 16:22:45 47° W 16:26:36 10° N
Okean O Rocket 1.8 16:18:43 10° SE 16:22:52 47° ENE 16:27:02 10° N
Aureole 2 4.0 16:20:12 10° NNW 16:23:10 67° ENE 16:26:21 10° SSE
IRIS 3.8 16:22:24 10° WNW 16:24:41 52° N 16:26:41 13° E
Timation 1 Rocket 4.5 16:18:58 10° NNW 16:24:59 85° WSW 16:30:57 10° SSE
SL-16 R/B 3.9 16:24:14 10° ESE 16:25:51 11° E 16:26:49 11° E
SMAP 4.4 16:21:26 10° S 16:25:52 45° W 16:30:21 10° NNW
Cosmos 1758 3.5 16:25:13 10° S 16:29:12 76° W 16:33:11 10° N
YAOGAN 1 3.7 16:26:49 10° ESE 16:30:16 24° ENE 16:33:44 10° NNE
CZ-4 R/B 2.5 16:27:37 10° ESE 16:30:40 22° ENE 16:33:46 10° NNE
Okean-O 4.3 16:30:06 12° E 16:31:43 15° ENE 16:34:07 10° NNE
Cosmos 1455 Rocket 3.7 16:30:28 10° SSE 16:34:22 32° E 16:38:18 10° NNE
GPS 2-04 Rocket1 3.2 16:30:56 10° W 16:34:34 46° S 16:37:41 12° ESE
Cosmos 1703 4.2 16:31:27 10° NNE 16:34:49 27° ENE 16:38:09 10° SE
Cosmos 2082 3.9 16:29:26 10° N 16:34:52 47° ENE 16:40:15 10° SE
Spot 2 4.5 16:33:41 10° SE 16:37:23 36° ENE 16:41:12 10° N
Cosmos 1727 Rocket 3.9 16:31:51 10° N 16:38:05 78° E 16:44:15 10° S
Cosmos 2150 Rocket 4.2 16:32:47 10° SSW 16:38:15 84° WNW 16:43:41 10° NNE
Cosmos 1953 2.4 16:36:01 10° S 16:39:55 52° E 16:43:52 10° NNE
Meteor 1-21 Rocket 4.5 16:37:39 10° N 16:43:21 51° ENE 16:49:04 10° SSE
ATLAS 3B R/B 3.4 16:38:17 10° SW 16:44:35 51° NW 16:51:11 10° NNE
H-2A R/B 2.7 16:41:19 10° NE 16:44:56 29° E 16:48:34 10° SSE
Tiangong 2.8 16:43:16 10° SSW 16:45:35 19° SSE 16:46:24 17° SE
H-2A R/B 2.4 16:43:27 10° S 16:48:43 73° WSW 16:54:08 10° NNW
CZ-4B R/B 3.8 16:51:00 10° S 16:56:33 64° WSW 17:02:12 10° NNW
Cosmos 1300 3.5 16:54:44 10° SSE 17:03:17 - NNE 16:57:58 28° E
NOSS 3-1 (C) 4.1 16:55:51 10° SSE 16:59:49 23° ESE 17:00:11 23° ESE
ATLAS 5 CENTAUR R/B 1.1 16:57:02 10° SSW 17:00:48 74° ESE 17:04:04 16° NE
Cosmos 405 Rocket 3.0 17:00:54 10° N 17:04:42 46° ENE 17:07:30 17° SSE
Feng Yun 1-1 Rocket 4.1 17:02:13 10° SSE 17:07:40 81° ENE 17:13:17 10° NNW
Cosmos 2369 4.4 17:02:32 10° SW 17:08:03 54° WNW 17:13:37 10° NNE
COSMO-SKYMED 1 4.2 17:05:36 10° N 17:09:37 37° WNW 17:13:35 10° SW
Cosmos 1605 Rocket 4.4 17:04:49 10° SSE 17:10:25 37° E 17:16:08 10° NNE
IRS-1C Rocket 4.2 17:08:33 10° SSE 17:13:37 52° ENE 17:18:42 10° N
SL-8 R/B 3.6 17:08:55 10° SW 17:13:41 75° SE 17:15:46 34° ENE
Cosmos 1535 Rocket 4.5 17:09:00 10° S 17:15:03 59° E 17:21:13 10° NNE
HJ-1C 3.1 17:17:52 66° ENE 17:17:52 66° ENE 17:21:01 10° N
Cosmos 1000 Rocket 4.5 17:12:34 10° N 17:18:45 84° W 17:24:57 10° S
H-2A R/B 2.7 17:14:24 10° S 17:18:50 75° WSW 17:23:09 10° NNW
SL-08 RB Rocket 3.7 17:15:43 10° S 17:20:13 82° WSW 17:24:47 10° NNW
Cosmos 1980 Rocket 2.9 17:16:51 10° SW 17:22:22 54° WNW 17:27:56 10° NNE
Cosmos 1892 Rocket 3.8 17:19:21 10° NNW 17:23:48 71° W 17:28:12 10° S
Cosmos 489 Rocket 4.5 17:19:56 10° N 17:26:03 58° ENE 17:29:10 29° SE
CSL-04 Debris 4.3 17:26:57 38° ESE 17:28:36 51° ENE 17:33:49 10° N
Cosmos 2263 Rocket 2.3 17:24:29 10° NNW 17:29:56 52° ENE 17:31:02 45° E
ARGOS 4.2 17:27:58 10° S 17:33:07 47° W 17:38:19 10° NNW
Cosmos 1269 Rocket 4.0 17:28:03 10° N 17:33:16 56° ENE 17:34:01 51° ESE
X-37B 2.3 17:33:24 10° WNW 17:35:50 27° NNW 17:35:50 27° NNW
Genesis I 4.1 17:35:39 10° NW 17:39:37 48° WSW 17:41:01 33° S
CZ-2C R/B 2.6 17:39:36 10° WSW 17:41:23 25° SW 17:41:23 25° SW
Cosmos 724 4.4 17:37:54 10° NNW 17:43:41 51° NE 17:43:53 50° ENE
CSL-04 Rocket 3.6 17:48:32 61° SE 17:49:23 72° ENE 17:54:55 10° N
Cosmos 371 Rocket 3.1 17:44:42 10° SSW 17:49:33 89° E 17:50:04 71° NNE
MetOp-A 4.0 17:49:39 45° SSE 17:51:24 87° ENE 17:56:48 10° NNW
Cosmos 1607 4.2 17:45:30 10° NW 17:51:42 65° WSW 17:54:59 28° S
Iridium 4 Rocket 4.2 17:50:02 10° NNW 17:54:17 46° W 17:58:52 10° SSW
Meteor 1-11 4.3 17:59:51 10° NNW 18:05:26 74° W 18:06:55 50° SSW
CZ-4 R/B 3.6 18:02:17 10° SSW 18:05:30 24° W 18:08:48 10° NW
Okean-O 3.4 18:07:42 50° WSW 18:07:44 50° W 18:12:03 10° NNW
SL-16 R/B 2.1 18:03:25 10° SSW 18:08:50 81° WSW 18:08:50 81° WSW
H-2A R/B 4.5 18:17:41 10° NNW 18:20:41 20° WNW 18:23:43 10° WSW
Cosmos 2322 Rocket 3.9 18:21:32 10° SSW 18:23:24 22° SSW 18:23:24 22° SSW
ATLAS 5 CENTAUR R/B 4.4 18:44:20 10° WNW 18:45:39 12° NW 18:45:39 12° NW
Cosmos 2263 Rocket 4.4 19:09:32 10° NW 19:12:46 19° W 19:12:46 19° W
